Regional Weather Roundup
Issued by NWS

Home | Current Version | Previous Version | Graphics & Text | Print | Product List | Glossary Off
Versions: 1 2 3 4 5 6 7 8 9 10 11 12 13 14 15 16 17 18 19 20 21 22 23 24 25 26 27 28 29 30 31 32 33 34 35 36 37 38 39 40 41 42 43 44 45 46 47 48 49 50

000
ASUS43 KTOP 262159
RWRKS

WEATHER ROUNDUP FOR KANSAS
NATIONAL WEATHER SERVICE GOODLAND KS
400 PM CST MON JAN 26 2015

NOTE:  "FAIR" INDICATES FEW OR NO CLOUDS BELOW 12,000 FEET WITH NO
SIGNIFICANT WEATHER AND/OR OBSTRUCTIONS TO VISIBILITY.

KSZ001>006-013>018-027>032-041>047-262300-
NORTHWEST KANSAS

CITY           SKY/WX    TMP DP  RH WIND       PRES   REMARKS
GOODLAND       SUNNY     68  30  24 NW14      30.14R
HAYS           SUNNY     72  30  21 NW20      30.03S
HILL CITY      SUNNY     72  29  20 NW20G30   30.04S
RUSSELL        SUNNY     70  31  23 NW20      30.00S
$$

KSZ061>065-074>080-084>089-262300-
SOUTHWEST KANSAS

CITY           SKY/WX    TMP DP  RH WIND       PRES   REMARKS
DODGE CITY     SUNNY     72  26  18 NW18      30.07S
ELKHART          N/A     70  31  23 N12         N/A
GARDEN CITY    SUNNY     71  27  19 N17       30.10R
GREAT BEND     SUNNY     72  32  23 N14G22    30.03S
LIBERAL        SUNNY     72  30  21 NW13      30.16R
$$

KSZ066>073-081>083-090>101-262300-
SOUTHEAST KANSAS

CITY           SKY/WX    TMP DP  RH WIND       PRES   REMARKS
CHANUTE        SUNNY     67  36  31 NW14      29.96R
COFFEYVILLE    SUNNY     68  36  30 NW13      29.96R
HUTCHINSON     SUNNY     73  33  23 N18       29.99R
MEDICINE LODGE   N/A     74  33  22 NW13      30.02R
NEWTON         SUNNY     70  34  26 N17G25    30.01S
PARSONS        SUNNY     68  36  30 NW14      29.96R
WICHITA INTL   MOSUNNY   74  33  22 NW14      29.98S
WICHITA JABRA  SUNNY     71  34  25 N15       29.98R
WINFIELD       SUNNY     72  31  22 NW20      29.99R
$$

KSZ007>012-019>026-033>040-048>060-102>105-262300-
NORTHEAST KANSAS

CITY           SKY/WX    TMP DP  RH WIND       PRES   REMARKS
CONCORDIA      SUNNY     67  32  27 NW14      29.98S
EMPORIA        SUNNY     65  35  33 NW17G24   29.96R
LAWRENCE       SUNNY     63  33  32 N16       29.92S
MANHATTAN      SUNNY     68  31  25 NW10G20   29.95S
OLATHE IND     SUNNY     61  36  39 NW16      29.92S
OLATHE EXE     SUNNY     61  34  36 NW15      29.91S
SALINA         SUNNY     71  33  24 NW14      29.98S
TOPEKA BILLARD SUNNY     65  34  31 N12       29.93S
TOPEKA FORBES  SUNNY     67  36  31 N16       29.93S
$$



USA.gov is the U.S. government's official web portal to all federal, state and local government web resources and services.